Regional Weather Roundup
Issued by NWS

Home | Current Version | Previous Version | Text Only | Print | Product List | Glossary Off
Versions: 1 2 3 4 5 6 7 8 9 10 11 12 13 14 15 16 17 18 19 20 21 22 23 24 25 26 27

000
ASUS45 KTFX 020710
RWRMT
MONTANA REGIONAL WEATHER ROUNDUP
NATIONAL WEATHER SERVICE GREAT FALLS MT
1200 AM MST FRI DEC 02 2016

NOTE: "FAIR" INDICATES FEW OR NO CLOUDS BELOW 12000 FEET WITH NO
SIGNIFICANT WEATHER AND/OR OBSTRUCTIONS TO VISIBILITY.

MTZ001>007-043-020800-
WEST OF THE DIVIDE

CITY           SKY/WX    TMP DP  RH WIND       PRES   REMARKS
KALISPELL      CLOUDY    32  31  96 CALM      30.19R FOG
MISSOULA       CLOUDY    31  30  96 CALM      30.24R
BUTTE          CLOUDY    22  19  89 NW3       30.12R
MULLAN PASS    FOG       22  19  89 CALM      30.14R VSB 1
ANACONDA         N/A     25  21  86 N5        30.14R
DEER LODGE       N/A     27  25  93 CALM      30.17R
EUREKA           N/A     30  30 100 CALM      30.21R
HAMILTON         N/A     32  23  69 CALM      30.22R
LIBBY            N/A     30  30 100 CALM      30.21R
PLAINS           N/A     36  28  73 W1        30.22R
RONAN            N/A     32  29  89 CALM      30.22R
$$

MTZ008-052>055-020800-
SOUTHWEST MONTANA

CITY           SKY/WX    TMP DP  RH WIND       PRES   REMARKS
BOZEMAN        CLOUDY    28  26  92 W8        30.13R WCI  20
DILLON         CLOUDY    25  16  68 S5        30.11R
W YELLOWSTONE  CLOUDY    16  14  93 CALM      30.09R
ENNIS          CLOUDY    27  25  93 CALM      30.15R FOG
$$

MTZ009-010-012-014-046-048-049-054-020800-
EAST SLOPES AND CENTRAL MONTANA

CITY           SKY/WX    TMP DP  RH WIND       PRES   REMARKS
CUT BANK       CLOUDY    22  21  96 W8        30.09R WCI  12
GREAT FALLS    LGT SNOW  30  29  96 SW8       30.11R FOG     WCI  22
HELENA         CLOUDY    30  21  69 W6        30.12R WCI  24
AUGUSTA        FOG       26  26 100 SW2       30.08R VSB 1/16
BOWMANS CRNR   SNOWSHWR  25  25  99 S7        30.08R VSB 1/2 WCI  17
CHOTEAU          N/A     27  27 100 SW5       30.11R
CONRAD           N/A     23  23 100 NW3       30.11R
FAIRFIELD      FRZ RAIN  29  26  91 S3        30.09R
POWER          FLURRIES  28  28  98 SW7       30.09R WCI  21
RAYNESFORD     FLURRIES  30  28  92 W14       30.10R WCI  19
ULM            LGT SNOW  29  29 100 NW6       30.12R WCI  23
$$

MTZ011-013-016-021-045-047-050-051-020800-
NORTH CENTRAL MONTANA

CITY           SKY/WX    TMP DP  RH WIND       PRES   REMARKS
HAVRE          CLOUDY    20  19  96 SW9       30.11R WCI   9
LEWISTOWN      LGT SNOW  28  26  92 W7        30.07R FOG     WCI  21
N BAR RANCH    MOCLDY    25  19  80 W3        30.06R
CHINOOK          N/A     23  21  93 W5        30.11R
DENTON         LGT SNOW  30  28  93 NW17G35   30.06R WCI  18
GEYSER         CLOUDY    29  27  90 W13       30.07R WCI  19
GRASS RANGE    FLURRIES  29  28  93 W14       30.03R WCI  19
JUDITH GAP     MOCLDY    24  24  96 NW3       30.05R FOG
ROY            FLURRIES  31  29  94 MISG      30.05R
STANFORD       FLURRIES  29  27  93 NW16      30.06R WCI  17
WINIFRED       LGT SNOW  30  30  99 MISG      30.07R FOG
$$

MTZ017>020-022>027-061-062-020800-
NORTHEAST MONTANA

CITY           SKY/WX    TMP DP  RH WIND       PRES   REMARKS
GLASGOW        CLOUDY    26  23  88 VRB3      30.07R
JORDAN           N/A     27  23  85 W6        30.06S WCI  20
SIDNEY         CLOUDY    18  16  92 CALM      30.10R
WOLF POINT     CLOUDY    26  23  88 CALM      30.09R
PLENTYWOOD       N/A     25  23  93 S3        30.08R
SCOBEY           N/A     24  18  78 S1        30.04R
$$

MTZ028>42-056>058-020800-
SOUTHCENTRAL AND SOUTHEAST MONTANA

CITY           SKY/WX    TMP DP  RH WIND       PRES   REMARKS
BAKER          CLOUDY    22  19  89 CALM      30.05R
BILLINGS       CLOUDY    34  23  64 SW6       30.09R WCI  29
LIVINGSTON     CLOUDY    28  22  78 W9        30.09R WCI  19
MILES CITY     CLEAR     17  14  88 W5        30.06R
BIG TIMBER     CLOUDY    30  23  74 W24       30.09R WCI  16
EKALAKA          N/A     25  20  81 CALM      30.00
FORSYTH          N/A     25  21  86 W6        30.08R WCI  18
HARLOWTON        N/A     24  19  82 W6        30.07R WCI  17
LAUREL           N/A     33  19  56 CALM      30.06R
ROUNDUP          N/A     28  21  75 S5        29.99R
$$

REGIONAL REPORTS...DAKOTAS

CITY           SKY/WX    TMP DP  RH WIND       PRES   REMARKS
WILLISTON      CLOUDY    29  23  78 S3        30.10R
MINOT          CLOUDY    28  21  75 CALM      30.12R
DICKINSON      CLOUDY    24  21  88 CALM      30.06R
BEACH          CLOUDY    23  23 100 SE6       30.09R WCI  16
CROSBY         CLOUDY    27  27 100 S7        30.13R WCI  19
TIOGA          CLOUDY    25  25 100 E6        30.11R WCI  18
WATFORD CITY   CLOUDY    27  25  93 E6        30.10R WCI  20
BISMARCK       CLOUDY    26  24  92 E3        30.14R
GRAND FORKS    CLOUDY    28  22  78 N9        30.13R WCI  19
FARGO          CLOUDY    29  23  78 N9        30.12R WCI  20
BUFFALO SD       N/A     24  22  91 CALM      29.98R
RAPID CITY     CLOUDY    24  19  81 CALM      30.06R
$$

REGIONAL REPORTS...WYOMING/IDAHO/WASHINGTON

CITY           SKY/WX    TMP DP  RH WIND       PRES   REMARKS
GILLETTE       PTCLDY    27  24  89 W12       30.03R WCI  17
SHERIDAN       CLOUDY    31  23  72 S6        30.05R WCI  25
BUFFALO WY     CLOUDY    30  19  63 W8        30.04R WCI  22
CODY           CLOUDY    23  18  81 SE6       30.08R WCI  16
YELLOWSTONE LA   N/A      5   2  87 NW3       30.06R
IDAHO FALLS    MOCLDY    15  12  88 NW3       30.17R
SALMON         CLOUDY    27  21  80 CALM      30.20S
BOISE          CLEAR     29  25  85 W6        30.26R WCI  23
SPOKANE        FOG       30  29  96 SE6       30.26S VSB 1/16WCI  24
$$

REGIONAL REPORTS...ALBERTA

CITY           SKY/WX    TMP DP  RH WIND       PRES   REMARKS
EDMONTON         N/A     27  25  93 W5        30.05S VSB 3/8
CALGARY        PTCLDY    27  21  80 VRB2      30.05R
LETHBRIDGE     CLOUDY    30  27  86 SW9       30.09R WCI  22
MEDICINE HAT   CLEAR     18  14  86 VRB2      30.10R FOG
WATERTON GATE    N/A     30  19  64 SW12G20     N/A  WCI  21
CARDSTON         N/A     12   9  85 S5          N/A
MILK RIVER       N/A     30  27  86 NW7         N/A  WCI  23
$$

REGIONAL REPORTS...SASKATCHEWAN

CITY           SKY/WX    TMP DP  RH WIND       PRES   REMARKS
SWIFT CURRENT  CLOUDY    23  21  93 W7        30.03R WCI  15
REGINA         CLOUDY    27  25  93 SE7       30.07S WCI  19
SASKATOON      CLOUDY    28  23  80 CALM      30.09R
VAL MARIE        N/A     25  23  93 N3          N/A
ROCKGLEN         N/A     25  25 100 SW2         N/A
ASSINIBOIA       N/A     25  23  93 S3          N/A
$$




USA.gov is the U.S. government's official web portal to all federal, state and local government web resources and services.